Погода в Плезире

Франция     48°49′25″N   1°57′12″E
темп.,
°C
ветер,
м/с
пор.,
м/с
влажн.,
%
обл.,
%
осадки,
мм/ч
давл.,
гПа
погр.,
м
14 апреля, ср
ср1423:00+5св37522 0.0 1032307
02:00+4св25540 0.0 1032168
05:00+2ссв25592 0.0 1031153
08:00+2ссв26625 0.0 1031180
11:00+8св46423 0.0 10311442
14:00+10ссв46325 0.0 10302032
17:00+11ссв5633100 0.0 10282397
20:00+8ссв474327 0.0 10281089
15 апреля, чт
чт1523:00+5ссв49585 0.0 1030528
02:00+3ссв39675 0.0 1030410
05:00+2ссв37770 0.0 1030256
08:00+2ссв38783 0.0 1030347
11:00+6св57565 0.0 10301030
14:00+10ссв4535100 0.0 10282426
17:00+10св463499 0.0 10272366
20:00+8ссв574957 0.0 1027874
16 апреля, пт
пт1623:00+6ссв49625 0.0 1028564
02:00+4св49685 0.0 1028378
05:00+3ссв39725 0.0 1027304
08:00+3ссв39692 0.0 1028360
11:00+7св59475 0.0 10281421
14:00+9св5844100 0.0 10261926
17:00+9св6850100 0.0 10261738
20:00+8св585693 0.1 10261251
17 апреля, сб
сб1723:00+6ссв496340 0.0 1026506
02:00+5с410805 0.0 1026384
05:00+4с378897 0.0 1025244
08:00+5ссв3979100 0.0 1025398
11:00+9св57618 0.0 1025976
14:00+12св5649100 0.0 10241662
17:00+12ссв4650100 0.0 10231711
20:00+11ссв475061 0.0 1023722
18 апреля, вс
вс1823:00+7ссз35745 0.0 1025138
02:00+5с36741 0.0 1025149
05:00+4ссз35780 0.0 1025130
08:00+4ссз37782 0.0 1025203
11:00+10ссв46585 0.0 1025782
14:00+14ссв344739 0.0 10241534
17:00+15с444686 0.0 10231754
20:00+12ссв355795 0.0 1023666